CZ-3B R/B, 67247

Orbit data source: Space-Track

CZ-3B R/B, 67247 is space debris originally from a launch on Fri, 26 Dec 2025 UTC launched from the Xichang Space Center, China (XSC). Debris objects in space refer to the collection of defunct objects orbiting the Earth. Examples of debris include non-operational satellites, rocket bodies, and fragments generated from explosions, collisions, or faulty payload assembly.

Not visible in the next 10 days
Identifier
67247, 2025-312B
Orbit
Active
Country
Flag of CNCN / PRC
Related business
Manufacturer
CALT
Mission
Decayed spacecraft
Bus & Motor
CZ-3A STAGE 3, Unknown motor
Mass
~2,800 kg wet, ~2,800 kg dry
Launch date (UTC)
2025-12-26 (6 months ago)
Launch vehicle
Unknown
Launch site
Xichang Space Center, China (XSC)
Object type
Payload
Rocket body
Debris
Shape & HBR
Cyl + 1 Nozzle, 8.0 m
Radar Cross Section
32.704 m², Large (>1 m²)

Expand to show TLE details & history
Last TLE update: 3 weeks ago

TLE from 3 weeks ago
0 CZ-3B R/B
1 67247U 25312B   26151.57957803  .05321609 -30377-5  95363-3 0  9999
2 67247  28.1572 212.3369 4187483  18.3057 353.1364  7.35094684  6117
Epoch: 2026-05-31T13:54Z
TLE epoch observation values (Epoch: 2026-05-31T13:54:35.541Z)
Latitude
-0.00005°
Longitude
114.60949°
Altitude
213.139 km
Speed
9.235 km/s
True Right ascension
14h 09m 20s
True Declination
0° 00' 00"
Sunlit
Object was in full shadow at epoch
Visualization orbit readout
Latitude
Unknown
Longitude
Unknown
Altitude
Unknown
Speed
Unknown
Apparent Right ascension
Unknown
Apparent Declination
Unknown
Sunlit
N/A
Visualization observer readout
Local Sidereal Time
07:20:25
Azimuth
Unknown
Elevation
Unknown
Doppler factor
Unknown
Orbital elements
Apogee altitude
9,478.638 km
Perigee altitude
118.278 km
Semi-major axis
11,176.595 km
Eccentricity
0.41875
Inclination
28.1572°
RAAN
212.3369°
Arg. of periapsis
18.3057°
True anomaly
341.73576°
Mean anomaly
353.1364°
Eccentric anomaly
348.25089°
Mean motion
1.83687 °/min
Orbital period
195.99 mins
BSTAR
0.00095363
Loading maneuver chart data...
Computing Atmospheric mass density...
Loading historical data...
Loading historical data...
Loading historical data...
Loading historical data...
Loading historical data...
Loading historical data...
Loading historical data...
Other satellites on launch #312 in the year 2025 (2025-12-26 UTC)

Documentation

Showing up to 5 results
|